Location: Asbacherhof
(48.8543°N, 10.7903°E)
Time: 23:59:28
(UTC+00:00)

Gblst 52 Del rocket - Pass Details

Date: 26 May 2022
Orbit: 805 x 1365 km, 51.5° (Epoch: 26 June)

Event Time Altitude Azimuth Distance (km) Brightness Sun altitude
Rises 23:58:57 0° 261° (W) 3,665 7.3 -19.3°
Reaches altitude 10° 00:01:41 10° 263° (W) 2,640 6.6 -19.2°
Maximum altitude 00:07:49 74° 349° (NNW) 897 4.4 -19.0°
Drops below altitude 10° 00:13:23 10° 74° (ENE) 2,412 7.0 -18.8°
Sets 00:15:48 0° 77° (ENE) 3,326 7.7 -18.7°
